Pilanesberg International Airport

Jump to: basic info | weather | frequencies | runways | comments

Related pages: nearby airports | nearby navaids | notams | map

Basic information (top)

Codes: NTY FAPN
Location: lon -25.333799, lat 27.173401, elev 3,412 ft / 1,040 m msl
Status: small_airport
Scheduled airline service: no
Links: Wikipedia Mobile

Weather (top)

Current conditions (rec'd 2015/05/06 14:00Z):

FAPN 061400Z AUTO 27004KT //// 31/M03 Q1017

Airport forecast (rec'd 2015/04/19 10:30Z):

TAF FAPN 190900Z 1910/1918 30014KT 9999 SCT035 PROB30 
      TEMPO 1910/1915 -TSRA FEW035CB TX20/1912ZTN16/1918Z

Frequencies (top)

Verify before use: may be inaccurate or out of date.

TWR: 118.4 MHz (TWR)

Runways (top)

05/23: 9,022 x 98 ft (2,750 x 30 m) — paved — lighted

Latest comments (top)

For all First Time Night Flyers!!!: Pilanesberg Int., amazing airport ... [read]

Flighs: Kindly request if you do have flights ... [read]

More... (top)

See also NOTAMs and nearby airports and navaids, or visit the Pilanesberg International Airport page at the main OurAirports website..